Regional Weather Roundup
Issued by NWS

Home | Current Version | Previous Version | Graphics & Text | Print | Product List | Glossary Off
Versions: 1 2 3 4 5 6 7 8 9 10 11 12 13 14 15 16 17 18 19 20 21 22 23 24 25 26 27 28 29 30 31 32 33 34 35 36 37 38 39 40 41 42 43 44 45 46 47 48 49 50

000
ASUS43 KMPX 260410
RWRMN
WEATHER ROUNDUP FOR MINNESOTA
NATIONAL WEATHER SERVICE TWIN CITIES/CHANHASSEN MN
1100 PM CDT WED APR 25 2018


NOTE: "FAIR" INDICATES FEW OR NO CLOUDS BELOW 12,000 FEET WITH NO
SIGNIFICANT WEATHER AND/OR OBSTRUCTIONS TO VISIBILITY. N/A MEANS
CURRENT SKY AND/OR WEATHER CONDITIONS ARE NOT AVAILABLE.

MNZ060>063-068>070-260500-
   Twin Cities Metro

CITY           SKY/WX    TMP DP  RH WIND       PRES   REMARKS
TWIN CITIES    CLOUDY    52  33  48 SW3       29.97F
ST PAUL        FAIR      47  33  58 CALM      29.97F
CRYSTAL        FAIR      49  30  48 S3        29.96F
BLAINE         FAIR      46  30  53 S3        29.96F
LAKEVILLE      FAIR      45  34  65 CALM      29.97F
EDEN PRAIRIE   FAIR      49  32  52 S3        29.96F
SOUTH ST PAUL  FAIR      49  30  47 CALM      29.97F
LAKE ELMO      FAIR      45  32  61 CALM      29.98F
$$
MNZ001>005-007-008-013>017-022>024-027-028-260500-
   Northwest Minnesota

CITY           SKY/WX    TMP DP  RH WIND       PRES   REMARKS
BEMIDJI        FAIR      46  29  51 S7        29.84F
HALLOCK        FAIR      52  36  54 N7        29.76R
ROSEAU         FAIR      50  39  66 S15       29.73F
WARROAD        FAIR      52  37  58 S8        29.74F
THIEF RVR FALL FAIR      49  35  58 S14       29.78F
CROOKSTON      FAIR      52  37  58 S16       29.77F
FOSSTON        FAIR      45  32  61 S14       29.81F
DETROIT LAKES  FAIR      46  34  61 S9        29.86F
MOORHEAD       FAIR      52  36  54 S16       29.83F
PARK RAPIDS    FAIR      46  30  53 S9        29.86F
MAHNOMEN       FAIR      47  33  59 S12       29.82F
$$
MNZ006-009>011-018-025>026-260500-
   North Central Minnesota

CITY           SKY/WX    TMP DP  RH WIND       PRES   REMARKS
BAUDETTE       FAIR      49  33  54 S8        29.76F
FLAG ISLAND    FAIR      37  32  81 S8        29.72F
INTL FALLS     FAIR      47  27  45 S6        29.80F
WASKISH        FAIR      50  30  46 S8        29.80F
BIG FORK       FAIR      43  27  52 S3        29.85F
LONGVILLE      FAIR      46  27  46 S3        29.89F
GRAND RAPIDS   FAIR      44  26  49 S7        29.90F
CRANE LAKE     FAIR      34  25  69 CALM      29.87F
ORR            FAIR      45  21  39 S5        29.83F
COOK           FAIR      46  25  42 S3        29.87F
WALKER         FAIR      46  28  49 S6        29.86F
$$
MNZ012-019>021-037-260500-
   Northeast Minnesota

CITY           SKY/WX    TMP DP  RH WIND       PRES   REMARKS
DULUTH         FAIR      47  18  31 SW7       29.90F
ELY            FAIR      46  23  39 SW5       29.87F
HIBBING        FAIR      43  23  45 SW3       29.88F
EVELETH        FAIR      45  25  44 SW6       29.89F
DULUTH HARBOR  FAIR      36  30  80 CALM      29.93F
TWO HARBORS    FAIR      37  27  65 SW3       29.89F
SILVER BAY     FAIR      34  23  64 CALM      29.89F
GRAND MARAIS     N/A     31  24  75 CALM      29.91F
G MARAIS ARPRT FAIR      30  18  59 CALM      29.89F
$$
MNZ029>031-032-039>041-046>048-054>057-064-260500-
   West Central Minnesota

CITY           SKY/WX    TMP DP  RH WIND       PRES   REMARKS
FERGUS FALLS   FAIR      46  36  66 S13       29.87F
WHEATON        CLOUDY    48  36  61 S9        29.92S
MORRIS         CLOUDY    45  37  76 S7        29.91F
ALEXANDRIA     FAIR      49  33  54 S10       29.92F
ELBOW LAKE     FAIR      43  37  78 S10       29.91F
WADENA         FAIR      43  30  61 S8        29.89F
GLENWOOD       FAIR      39  34  81 S8        29.93F
APPLETON       CLOUDY    50  34  53 S7        29.92F
BENSON         CLOUDY    43  36  75 S7        29.94F
ORTONVILLE     CLOUDY    45  36  70 S8        29.90F
WILLMAR        FAIR      41  36  81 CALM      29.96F
$$
MNZ033>034-036-042>043-049>051-058-059-260500-
   Central Minnesota

CITY           SKY/WX    TMP DP  RH WIND       PRES   REMARKS
ST CLOUD       FAIR      43  33  68 S7        29.94F
SAUK CENTRE    FAIR      41  32  70 S6        29.93F
PAYNESVILLE    FAIR      47  34  62 S7        29.94F
AITKIN         FAIR      43  27  52 S5        29.89F
PINE RIVER     FAIR      43  27  52 CALM      29.93F
BRAINERD       FAIR      46  27  47 S7        29.91F
STAPLES        FAIR      43  28  56 S7        29.90F
LONG PRAIRIE   FAIR      41  32  70 SE7       29.93F
LITTLE FALLS   FAIR      43  27  52 SE3       29.93F
LITCHFIELD     FAIR      43  36  75 CALM      29.95F
BUFFALO        FAIR      45  33  63 CALM      29.97F
MAPLE LAKE     FAIR      46  36  67 CALM      29.96F
HUTCHINSON     FAIR      42  38  86 S3        29.97F
$$
MNZ037-044-045-052-053-260500-
   East Central Minnesota

CITY           SKY/WX    TMP DP  RH WIND       PRES   REMARKS
PRINCETON      FAIR      46  28  49 CALM      29.95F
MORA           FAIR      45  28  53 SW3       29.96F
CAMBRIDGE      FAIR      48  30  49 S3        29.96F
RUSH CITY      MOCLDY    47  26  45 SW5       29.95F
MOOSE LAKE     FAIR      37  21  52 CALM      29.91F
HINCKLEY       FAIR      39  30  70 SW3       29.94F
CLOQUET        FAIR      46  10  23 SW3       29.91F
MCGREGOR       FAIR      43  27  52 S5        29.91F
$$
MNZ071>073-080-081-089-090-097-098-260500-
   Southwest Minnesota

CITY           SKY/WX    TMP DP  RH WIND       PRES   REMARKS
MONTEVIDEO     CLOUDY    46  37  71 SW6       29.93F
GRANITE FALLS  CLOUDY    45  38  78 S9        29.95F
CANBY          CLOUDY    46  36  68 S5        29.94F
MARSHALL       CLOUDY    44  36  73 SW9       29.95F
REDWOOD FALLS  CLOUDY    44  36  73 S7        29.95F
OLIVIA         CLOUDY    45  34  65 S7        29.94F
PIPESTONE      PTCLDY   N/A N/A N/A SW5       29.96F
WINDOM         CLOUDY    45  25  45 S6        29.97F
WORTHINGTON    CLOUDY    45  34  65 S7        29.98F
JACKSON        PTCLDY    46  34  61 S6        29.98F
TRACY          CLOUDY    49  36  61 S8        29.95F
SLAYTON        PTCLDY    43  36  77 S10       29.97F
$$
MNZ065>067-074>077-082>085-091>093-260500-
   South Central Minnesota

CITY           SKY/WX    TMP DP  RH WIND       PRES   REMARKS
MANKATO        FAIR      49  33  54 S6        29.98F
NEW ULM        PTCLDY    45  34  65 S6        29.96F
ST JAMES       PTCLDY    46  39  76 SE6       29.98F
FAIRMONT       CLOUDY    44  38  79 S6        29.99F
GLENCOE        FAIR      48  37  65 CALM      29.96F
OWATONNA       FAIR      43  36  75 S6        29.99F
WASECA         FAIR      41  36  81 S3        30.00F
ALBERT LEA     FAIR      39  36  87 CALM      30.00F
$$
MNZ078>079-086>088-094>096-260500-
   Southeast Minnesota

CITY           SKY/WX    TMP DP  RH WIND       PRES   REMARKS
ROCHESTER      FAIR      44  32  62 SW8       29.99F
RED WING       FAIR      39  27  60 CALM      29.97F
STANTON        FAIR      43  34  71 S3        29.97F
DODGE CENTER   FAIR      45  34  65 SW3       29.99F
WINONA         FAIR      43  32  65 CALM      29.97F
AUSTIN         FAIR      46  34  61 CALM      29.99F
PRESTON        FAIR      47  27  45 CALM      30.00F
$$
ABBREVIATIONS USED IN REMARKS
   TC - TEMPERATURES IN CELSIUS
  WCI - WIND CHILL INDEX
   HX - HEAT INDEX
  VSB - VISIBILITY
$$




USA.gov is the U.S. government's official web portal to all federal, state and local government web resources and services.